Weather in Mstsislaw

Belarus     54˚01′10″N   31˚43′29″E
temp.,
°C
wind,
m/s
gust,
m/s
humid.,
%
clouds,
%
prec.,
mm/h
press.,
hPa
HPBL,
m
1 december, tue
tue100:00−2˚ssw368594 0.1 1028242
03:00−3˚ssw238984 0.1 102870
06:00−3˚s239043 0.0 102855
09:00−3˚ssw129021 0.0 102923
12:00−1˚s11780 0.0 1030235
15:00−1˚e11750 0.0 1030258
18:00−3˚ne23840 0.0 103134
21:00−3˚ne34870 0.0 103286
2 december, wed
wed200:00−3˚ne359423 0.0 1033111
03:00−1˚ne359362 0.0 1033208
06:00−1˚e4792100 0.0 1032480
09:00−3˚ese3786100 0.1 1032456
12:00−2˚ese468298 0.0 1032445
15:00−1˚ese468199 0.0 1031542
18:00−2˚ese4879100 0.0 1030523
21:00−3˚se4884100 0.0 1030550
3 december, thu
thu300:00−3˚se478698 0.1 1030582
03:00−3˚se478798 0.1 1029450
06:00−3˚se4792100 0.1 1029431
09:00−3˚se479397 0.4 1028435
12:00−2˚se488789 0.1 1028447
15:00−2˚se478694 0.2 1027517
18:00−2˚se4787100 0.0 1027530
21:00−2˚sse4788100 0.1 1027590
4 december, fri
fri400:00−2˚se4790100 0.0 1027389
03:00−2˚se4891100 0.1 1026306
06:00−2˚se599199 0.0 1025330
09:00−1˚se6109098 0.0 1026422
12:00se61089100 0.0 1026527
15:00se61090100 0.0 1026471
18:00−2˚se6119577 0.0 1026440
21:00se6119089 0.0 1026697
5 december, sat
sat500:00−1˚se61291100 0.0 1026561
03:00se61191100 0.1 1026519
06:00se61292100 0.0 1026499
09:00se61192100 0.0 1027524
12:00se61190100 0.0 1028547
15:00se61189100 0.0 1028547
18:00se71290100 0.0 1028513
21:00se71389100 0.0 1028558